Вернуться в каталог

SL-8 DEB

АктивенLEO
NORAD 21162·DEBRIS·🇷🇺 Russia

Запущен Feb 12, 1991 с Plesetsk Cosmodrome

Loading…

Ближайшие Пролёты (ближайшие 24 часа)

TLE

СвежийSource: Space-Track

Эпоха: Sep 14, 2026, 09:28 UTC

1 21162U 91009Z   26257.39500508 -.00000006  00000-0  86298-4 0  9997
2 21162  73.9771 128.1039 0137732 307.6921 225.9151 12.27830956592388

Отслеживайте SL-8 DEB в реальном времени с AllMySat

Download on the App Store